Weather History for PASO - October, 2012

Change the Weather History Date:

Tuesday, October 16, 2012

  Actual Average (PAHO) Record (PAHO)
Temperature  
Mean Temperature 33 °F -  
Max Temperature 34 °F 45 °F 58 °F (1969)
Min Temperature 32 °F 32 °F 17 °F (1996)
Degree Days  
Heating Degree Days 32    
Moisture  
Dew Point 29 °F    
Average Humidity 87    
Maximum Humidity 93    
Minimum Humidity 75    
Precipitation  
Precipitation 0.75 in - - ()
Sea Level Pressure  
Sea Level Pressure 29.30 in    
Wind  
Wind Speed 7 mph (North)    
Max Wind Speed 12 mph    
Max Gust Speed 16 mph    
Visibility 2 miles    
Events Fog , Snow    
Averages and records for this station are not official NWS values.
T = Trace of Precipitation, MM = Missing Value Source: NWS Daily Summary

Daily Weather History Graph

Daily Weather History Graph

Search for Another Location

Airport or City:

Trip Planner

Search our weather history database for the weather conditions in past years. The results will help you decide how hot, cold, wet, or windy it might be!

Date:

Astronomy

Oct. 16, 2012 Rise Set
Actual Time 8:49 AM AKDT 6:54 PM AKDT
Civil Twilight 8:07 AM AKDT 7:35 PM AKDT
Nautical Twilight 7:19 AM AKDT 8:23 PM AKDT
Astronomical Twilight 6:32 AM AKDT 9:10 PM AKDT
Moon 11:01 AM AKDT (10/16) 7:06 PM AKDT (10/16)
Length of Visible Light 11h 28m
Length of Day
10h 05m
Waxing Crescent, 3% of the Moon is Illuminated
Oct 16
Waxing Crescent
Oct 21
First Quarter
Oct 29
Full
Nov 6
Last Quarter
Nov 13
New

Hourly Weather History & Observations

Time (AKDT) Temp. Windchill Dew Point Humidity Pressure Visibility Wind Dir Wind Speed Gust Speed Precip Events Conditions
12:31 AM 33.8 °F 26.4 °F 26.6 °F 75% 29.14 in 1.8 mi South 9.2 mph - 0.01 in Snow Light Snow
12:53 AM 32.0 °F 24.8 °F 28.0 °F 85% 29.15 in 1.5 mi South 8.1 mph - 0.02 in Snow Light Snow
1:49 AM 32.0 °F 25.6 °F 28.4 °F 87% 29.15 in 2.0 mi South 6.9 mph - 0.03 in Snow Light Snow
1:53 AM 32.0 °F 27.5 °F 28.9 °F 88% 29.16 in 2.0 mi Variable 4.6 mph - 0.03 in Snow Light Snow
2:12 AM 33.8 °F 27.7 °F 28.4 °F 81% 29.15 in 3.0 mi Variable 6.9 mph 16.1 mph 0.00 in Snow Light Snow
2:28 AM 33.8 °F 26.4 °F 28.4 °F 81% 29.16 in 2.5 mi South 9.2 mph - 0.01 in Snow Light Snow
2:48 AM 33.8 °F 28.6 °F 28.4 °F 81% 29.16 in 2.0 mi Variable 5.8 mph - 0.02 in Snow Light Snow
2:53 AM 32.0 °F 24.8 °F 28.0 °F 85% 29.16 in 2.0 mi South 8.1 mph - 0.03 in Snow Light Snow
3:11 AM 32.0 °F 25.6 °F 28.4 °F 87% 29.16 in 1.5 mi Variable 6.9 mph - 0.01 in Snow Light Snow
3:46 AM 33.8 °F 29.6 °F 28.4 °F 81% 29.17 in 2.5 mi Variable 4.6 mph - 0.02 in Snow Light Snow
3:53 AM 33.1 °F 26.9 °F 28.0 °F 82% 29.17 in 2.5 mi Variable 6.9 mph - 0.02 in Snow Light Snow
3:58 AM 32.0 °F 25.6 °F 28.4 °F 87% 29.17 in 1.8 mi South 6.9 mph - 0.00 in Snow Light Snow
4:22 AM 33.8 °F 29.6 °F 28.4 °F 81% 29.17 in 2.0 mi Variable 4.6 mph - 0.01 in Snow Light Snow
4:26 AM 32.0 °F 28.7 °F 28.4 °F 87% 29.18 in 1.5 mi Variable 3.5 mph - 0.01 in Snow Light Snow
4:51 AM 32.0 °F 28.7 °F 28.4 °F 87% 29.18 in 1.0 mi Variable 3.5 mph - 0.02 in Snow Light Snow
4:53 AM 32.0 °F 27.5 °F 28.9 °F 88% 29.18 in 1.0 mi Variable 4.6 mph - 0.02 in Snow Light Snow
5:09 AM 32.0 °F 25.6 °F 28.4 °F 87% 29.18 in 1.2 mi Variable 6.9 mph - 0.01 in Snow Light Snow
5:30 AM 32.0 °F 27.5 °F 28.4 °F 87% 29.18 in 0.8 mi Variable 4.6 mph - 0.03 in Snow Light Snow
5:53 AM 32.0 °F 27.5 °F 28.9 °F 88% 29.19 in 0.8 mi Variable 4.6 mph - 0.05 in Snow Light Snow
6:53 AM 32.0 °F 25.6 °F 28.9 °F 88% 29.19 in 0.5 mi Variable 6.9 mph - 0.11 in Fog , Snow Snow
7:11 AM 32.0 °F 27.5 °F 28.4 °F 87% 29.20 in 0.5 mi Variable 4.6 mph - 0.04 in Fog , Snow Snow
7:26 AM 32.0 °F 28.7 °F 28.4 °F 87% 29.20 in 0.5 mi Variable 3.5 mph - 0.07 in Fog , Snow Snow
7:53 AM 32.0 °F 28.7 °F 28.9 °F 88% 29.21 in 0.5 mi Variable 3.5 mph - 0.13 in Fog , Snow Snow
8:53 AM 32.0 °F 27.5 °F 28.9 °F 88% 29.21 in 0.8 mi Variable 4.6 mph - 0.11 in Snow Light Snow
9:31 AM 33.8 °F 28.6 °F 30.2 °F 87% 29.21 in 1.2 mi North 5.8 mph - 0.05 in Snow Light Snow
9:53 AM 33.1 °F 28.7 °F 30.9 °F 92% 29.22 in 2.0 mi North 4.6 mph - 0.06 in Snow Light Snow
10:02 AM 33.8 °F 28.6 °F 30.2 °F 87% 29.22 in 2.5 mi North 5.8 mph - 0.01 in Snow Light Snow
10:10 AM 33.8 °F 28.6 °F 30.2 °F 87% 29.22 in 1.2 mi North 5.8 mph - 0.01 in Snow Light Snow
10:17 AM 33.8 °F 28.6 °F 30.2 °F 87% 29.23 in 1.0 mi North 5.8 mph - 0.01 in Snow Light Snow
10:25 AM 33.8 °F 30.8 °F 30.2 °F 87% 29.23 in 0.8 mi North 3.5 mph - 0.01 in Snow Light Snow
10:37 AM 33.8 °F 27.7 °F 30.2 °F 87% 29.23 in 1.2 mi Variable 6.9 mph - 0.02 in Snow Light Snow
10:53 AM 33.1 °F 26.1 °F 30.0 °F 89% 29.24 in 1.0 mi NNE 8.1 mph - 0.02 in Snow Light Snow
11:05 AM 33.8 °F 26.4 °F 30.2 °F 87% 29.24 in 1.5 mi North 9.2 mph - 0.00 in Snow Light Snow
11:53 AM 33.1 °F 27.7 °F 30.9 °F 92% 29.26 in 1.8 mi North 5.8 mph - 0.01 in Snow Light Snow
12:12 PM 33.8 °F 26.4 °F 30.2 °F 87% 29.26 in 1.0 mi North 9.2 mph - 0.01 in Snow Light Snow
1:00 PM 33.8 °F 27.0 °F 30.2 °F 87% 29.28 in 1.5 mi North 8.1 mph - 0.00 in Snow Light Snow
1:50 PM 33.8 °F 29.6 °F 30.2 °F 87% 29.29 in 1.8 mi North 4.6 mph - 0.01 in Snow Light Snow
1:53 PM 33.1 °F 27.7 °F 30.0 °F 89% 29.29 in 1.8 mi North 5.8 mph - 0.01 in Snow Light Snow
2:03 PM 33.8 °F 27.0 °F 30.2 °F 87% 29.29 in 1.2 mi North 8.1 mph - 0.00 in Snow Light Snow
2:20 PM 33.8 °F 27.0 °F 30.2 °F 87% 29.30 in 3.0 mi North 8.1 mph - 0.00 in Snow Light Snow
2:42 PM 33.8 °F 27.7 °F 30.2 °F 87% 29.30 in 2.5 mi North 6.9 mph - 0.00 in Snow Light Snow
2:50 PM 33.8 °F 28.6 °F 30.2 °F 87% 29.30 in 1.8 mi North 5.8 mph - 0.00 in Snow Light Snow
2:51 PM 34.0 °F 28.8 °F 30.0 °F 85% 29.31 in 1.8 mi Variable 5.8 mph - 0.00 in Snow Light Snow
3:43 PM 33.8 °F 27.7 °F 30.2 °F 87% 29.31 in 1.2 mi North 6.9 mph - 0.01 in Snow Light Snow
3:53 PM 34.0 °F 29.8 °F 30.0 °F 85% 29.32 in 1.2 mi North 4.6 mph - 0.01 in Snow Light Snow
4:31 PM 33.8 °F 29.6 °F 30.2 °F 87% 29.33 in 3.0 mi NNE 4.6 mph - 0.01 in Snow Light Snow
4:53 PM 33.1 °F - 30.9 °F 92% 29.33 in 6.0 mi Calm Calm - 0.01 in Snow Light Snow
5:53 PM 34.0 °F 26.6 °F 28.9 °F 82% 29.35 in 6.0 mi North 9.2 mph - 0.00 in Snow Light Snow
6:08 PM 33.8 °F 28.6 °F 30.2 °F 87% 29.35 in 2.5 mi North 5.8 mph - 0.00 in Snow Light Snow
6:18 PM 33.8 °F 28.6 °F 30.2 °F 87% 29.36 in 5.0 mi North 5.8 mph - 0.01 in Snow Light Snow
6:39 PM 33.8 °F 25.3 °F 30.2 °F 87% 29.36 in 2.0 mi North 11.5 mph - 0.02 in Snow Light Snow
6:53 PM 33.1 °F 24.9 °F 28.9 °F 85% 29.37 in 2.5 mi North 10.4 mph - 0.03 in Snow Light Snow
7:09 PM 33.8 °F 27.0 °F 30.2 °F 87% 29.38 in 4.0 mi North 8.1 mph - 0.00 in Snow Light Snow
7:22 PM 33.8 °F 26.4 °F 28.4 °F 81% 29.39 in 4.0 mi North 9.2 mph - 0.00 in Snow Light Snow
7:25 PM 33.8 °F 26.4 °F 28.4 °F 81% 29.39 in 2.5 mi North 9.2 mph - 0.00 in Snow Light Snow
7:36 PM 33.8 °F 25.8 °F 30.2 °F 87% 29.39 in 1.2 mi North 10.4 mph - 0.01 in Snow Light Snow
7:47 PM 33.8 °F 25.8 °F 30.2 °F 87% 29.40 in 1.0 mi NNE 10.4 mph - 0.02 in Snow Light Snow
7:48 PM 33.1 °F 26.1 °F 30.0 °F 89% 29.41 in 1.0 mi NNE 8.1 mph - 0.02 in Snow Light Snow
8:01 PM 32.0 °F 24.8 °F 28.4 °F 87% 29.41 in 0.8 mi NNE 8.1 mph - 0.01 in Snow Light Snow
8:05 PM 32.0 °F 24.8 °F 28.4 °F 87% 29.41 in 1.0 mi North 8.1 mph - 0.01 in Snow Light Snow
8:16 PM 32.0 °F 24.8 °F 30.2 °F 93% 29.42 in 0.8 mi North 8.1 mph - 0.02 in Snow Light Snow
8:37 PM 32.0 °F 26.4 °F 30.2 °F 93% 29.43 in 1.0 mi North 5.8 mph - 0.03 in Snow Light Snow
8:44 PM 32.0 °F 27.5 °F 30.2 °F 93% 29.43 in 1.2 mi North 4.6 mph - 0.04 in Snow Light Snow
8:53 PM 32.0 °F 27.5 °F 30.0 °F 92% 29.44 in 1.5 mi North 4.6 mph - 0.04 in Snow Light Snow
9:08 PM 33.8 °F 27.7 °F 30.2 °F 87% 29.44 in 2.0 mi North 6.9 mph - 0.00 in Snow Light Snow
9:18 PM 33.8 °F 27.0 °F 30.2 °F 87% 29.45 in 1.8 mi North 8.1 mph - 0.00 in Snow Light Snow
9:53 PM 33.1 °F 27.7 °F 30.0 °F 89% 29.47 in 1.8 mi North 5.8 mph - 0.01 in Snow Light Snow
10:03 PM 32.0 °F 27.5 °F 30.2 °F 93% 29.46 in 2.0 mi North 4.6 mph - 0.00 in Snow Light Snow
10:29 PM 32.0 °F 28.7 °F 28.4 °F 87% 29.48 in 2.0 mi North 3.5 mph - 0.01 in Snow Light Snow
10:35 PM 32.0 °F 28.7 °F 28.4 °F 87% 29.48 in 3.0 mi Variable 3.5 mph - 0.01 in Snow Light Snow
10:53 PM 32.0 °F - 30.0 °F 92% 29.49 in 7.0 mi Calm Calm - 0.01 in Snow Light Snow
11:11 PM 32.0 °F - 28.4 °F 87% 29.49 in 8.0 mi Calm Calm - 0.00 in   Overcast
11:45 PM 32.0 °F 27.5 °F 28.4 °F 87% 29.51 in 10.0 mi North 4.6 mph - 0.00 in   Overcast
11:53 PM 33.1 °F 27.7 °F 28.0 °F 82% 29.52 in 10.0 mi North 5.8 mph - 0.00 in   Overcast